owner,sensor,date,latitude,longitude,vertical_datum,mass_concentration_of_oxygen_in_sea_water,qcFlag 
LUMCON,ioos:station:LUMCON:101:1,2019-11-01T00:00:00Z,29.2533,-90.6633,1.735,8.29,11111222 
LUMCON,ioos:station:LUMCON:101:1,2019-11-01T00:15:00Z,29.2533,-90.6633,1.724,8.17,11111222 
LUMCON,ioos:station:LUMCON:101:1,2019-11-01T00:30:00Z,29.2533,-90.6633,1.735,8.01,11111222 
LUMCON,ioos:station:LUMCON:101:1,2019-11-01T00:45:00Z,29.2533,-90.6633,1.757,8.17,11111222 
LUMCON,ioos:station:LUMCON:101:1,2019-11-01T01:00:00Z,29.2533,-90.6633,1.763,8.31,11111222 
LUMCON,ioos:station:LUMCON:101:1,2019-11-01T01:15:00Z,29.2533,-90.6633,1.773,8.33,11111222 
LUMCON,ioos:station:LUMCON:101:1,2019-11-01T01:30:00Z,29.2533,-90.6633,1.774,8.21,11111222 
LUMCON,ioos:station:LUMCON:101:1,2019-11-01T01:45:00Z,29.2533,-90.6633,1.768,8.02,11111222 
LUMCON,ioos:station:LUMCON:101:1,2019-11-01T02:00:00Z,29.2533,-90.6633,1.773,8.42,11111222 
LUMCON,ioos:station:LUMCON:101:1,2019-11-01T02:15:00Z,29.2533,-90.6633,1.78,8.4,11111222 
LUMCON,ioos:station:LUMCON:101:1,2019-11-01T02:30:00Z,29.2533,-90.6633,1.793,8.36,11111222 
LUMCON,ioos:station:LUMCON:101:1,2019-11-01T02:45:00Z,29.2533,-90.6633,1.801,8.32,11111222 
LUMCON,ioos:station:LUMCON:101:1,2019-11-01T03:00:00Z,29.2533,-90.6633,1.816,8.19,11111222 
LUMCON,ioos:station:LUMCON:101:1,2019-11-01T03:15:00Z,29.2533,-90.6633,1.836,8.22,11111222 
LUMCON,ioos:station:LUMCON:101:1,2019-11-01T03:30:00Z,29.2533,-90.6633,1.843,8.28,11111222 
LUMCON,ioos:station:LUMCON:101:1,2019-11-01T03:45:00Z,29.2533,-90.6633,1.862,8.35,11111222 
LUMCON,ioos:station:LUMCON:101:1,2019-11-01T04:00:00Z,29.2533,-90.6633,1.872,8.23,11111222 
LUMCON,ioos:station:LUMCON:101:1,2019-11-01T04:15:00Z,29.2533,-90.6633,1.882,8.18,11111222 
LUMCON,ioos:station:LUMCON:101:1,2019-11-01T04:30:00Z,29.2533,-90.6633,1.887,8.12,11111222 
LUMCON,ioos:station:LUMCON:101:1,2019-11-01T04:45:00Z,29.2533,-90.6633,1.896,8.1,11111222 
LUMCON,ioos:station:LUMCON:101:1,2019-11-01T05:00:00Z,29.2533,-90.6633,1.912,8.06,11111222 
LUMCON,ioos:station:LUMCON:101:1,2019-11-01T05:15:00Z,29.2533,-90.6633,1.931,8.07,11111222 
LUMCON,ioos:station:LUMCON:101:1,2019-11-01T05:30:00Z,29.2533,-90.6633,1.946,7.98,11111222 
LUMCON,ioos:station:LUMCON:101:1,2019-11-01T05:45:00Z,29.2533,-90.6633,1.959,7.97,11111222 
LUMCON,ioos:station:LUMCON:101:1,2019-11-01T06:00:00Z,29.2533,-90.6633,1.967,7.98,11111222 
LUMCON,ioos:station:LUMCON:101:1,2019-11-01T06:15:00Z,29.2533,-90.6633,1.975,8.0,11111222 
LUMCON,ioos:station:LUMCON:101:1,2019-11-01T06:30:00Z,29.2533,-90.6633,1.979,8.01,11111222 
LUMCON,ioos:station:LUMCON:101:1,2019-11-01T06:45:00Z,29.2533,-90.6633,1.984,8.03,11111222 
LUMCON,ioos:station:LUMCON:101:1,2019-11-01T07:00:00Z,29.2533,-90.6633,1.989,8.06,11111222 
LUMCON,ioos:station:LUMCON:101:1,2019-11-01T07:15:00Z,29.2533,-90.6633,1.996,8.02,11111222 
LUMCON,ioos:station:LUMCON:101:1,2019-11-01T07:30:00Z,29.2533,-90.6633,2.001,7.99,11111222 
LUMCON,ioos:station:LUMCON:101:1,2019-11-01T07:45:00Z,29.2533,-90.6633,2.001,8.03,11111222 
LUMCON,ioos:station:LUMCON:101:1,2019-11-01T08:00:00Z,29.2533,-90.6633,2.004,7.94,11111222 
LUMCON,ioos:station:LUMCON:101:1,2019-11-01T08:15:00Z,29.2533,-90.6633,2.009,7.92,11111222 
LUMCON,ioos:station:LUMCON:101:1,2019-11-01T08:30:00Z,29.2533,-90.6633,2.015,8.04,11111222 
LUMCON,ioos:station:LUMCON:101:1,2019-11-01T08:45:00Z,29.2533,-90.6633,2.015,8.02,11111222 
LUMCON,ioos:station:LUMCON:101:1,2019-11-01T09:00:00Z,29.2533,-90.6633,2.019,8.07,11111222 
LUMCON,ioos:station:LUMCON:101:1,2019-11-01T09:15:00Z,29.2533,-90.6633,2.02,8.08,11111222 
LUMCON,ioos:station:LUMCON:101:1,2019-11-01T09:30:00Z,29.2533,-90.6633,2.018,8.0,11111222 
LUMCON,ioos:station:LUMCON:101:1,2019-11-01T09:45:00Z,29.2533,-90.6633,2.019,8.03,11111222 
LUMCON,ioos:station:LUMCON:101:1,2019-11-01T10:00:00Z,29.2533,-90.6633,2.019,8.02,11111222 
LUMCON,ioos:station:LUMCON:101:1,2019-11-01T10:15:00Z,29.2533,-90.6633,2.019,7.9,11111222 
LUMCON,ioos:station:LUMCON:101:1,2019-11-01T10:30:00Z,29.2533,-90.6633,2.017,8.14,11111222 
LUMCON,ioos:station:LUMCON:101:1,2019-11-01T10:45:00Z,29.2533,-90.6633,2.017,8.08,11111222 
LUMCON,ioos:station:LUMCON:101:1,2019-11-01T11:00:00Z,29.2533,-90.6633,2.012,8.07,11111222 
LUMCON,ioos:station:LUMCON:101:1,2019-11-01T11:15:00Z,29.2533,-90.6633,2.01,7.91,11111222 
LUMCON,ioos:station:LUMCON:101:1,2019-11-01T11:30:00Z,29.2533,-90.6633,2.003,7.85,11111222 
LUMCON,ioos:station:LUMCON:101:1,2019-11-01T11:45:00Z,29.2533,-90.6633,1.998,8.32,11111222 
LUMCON,ioos:station:LUMCON:101:1,2019-11-01T12:00:00Z,29.2533,-90.6633,1.988,8.19,11111222 
LUMCON,ioos:station:LUMCON:101:1,2019-11-01T12:15:00Z,29.2533,-90.6633,1.984,8.2,11111222 
LUMCON,ioos:station:LUMCON:101:1,2019-11-01T12:30:00Z,29.2533,-90.6633,1.969,8.22,11111222 
LUMCON,ioos:station:LUMCON:101:1,2019-11-01T12:45:00Z,29.2533,-90.6633,1.956,8.24,11111222 
LUMCON,ioos:station:LUMCON:101:1,2019-11-01T13:00:00Z,29.2533,-90.6633,1.945,8.22,11111222 
LUMCON,ioos:station:LUMCON:101:1,2019-11-01T13:15:00Z,29.2533,-90.6633,1.927,8.28,11111222 
LUMCON,ioos:station:LUMCON:101:1,2019-11-01T13:30:00Z,29.2533,-90.6633,1.913,8.33,11111222 
LUMCON,ioos:station:LUMCON:101:1,2019-11-01T13:45:00Z,29.2533,-90.6633,1.899,8.43,11111222 
LUMCON,ioos:station:LUMCON:101:1,2019-11-01T14:00:00Z,29.2533,-90.6633,1.887,8.52,11111222 
LUMCON,ioos:station:LUMCON:101:1,2019-11-01T14:15:00Z,29.2533,-90.6633,1.873,8.7,11111222 
LUMCON,ioos:station:LUMCON:101:1,2019-11-01T14:30:00Z,29.2533,-90.6633,1.857,8.8,11111222 
LUMCON,ioos:station:LUMCON:101:1,2019-11-01T14:45:00Z,29.2533,-90.6633,1.843,8.83,11111222 
LUMCON,ioos:station:LUMCON:101:1,2019-11-01T15:00:00Z,29.2533,-90.6633,1.832,8.84,11111222 
LUMCON,ioos:station:LUMCON:101:1,2019-11-01T15:15:00Z,29.2533,-90.6633,1.823,8.89,11111222 
LUMCON,ioos:station:LUMCON:101:1,2019-11-01T15:30:00Z,29.2533,-90.6633,1.812,8.97,11111222 
LUMCON,ioos:station:LUMCON:101:1,2019-11-01T15:45:00Z,29.2533,-90.6633,1.798,9.06,11111222 
LUMCON,ioos:station:LUMCON:101:1,2019-11-01T16:00:00Z,29.2533,-90.6633,1.79,9.16,11111222 
LUMCON,ioos:station:LUMCON:101:1,2019-11-01T16:15:00Z,29.2533,-90.6633,1.78,9.24,11111222 
LUMCON,ioos:station:LUMCON:101:1,2019-11-01T16:30:00Z,29.2533,-90.6633,1.768,9.35,11111222 
LUMCON,ioos:station:LUMCON:101:1,2019-11-01T16:45:00Z,29.2533,-90.6633,1.762,9.41,11111222 
LUMCON,ioos:station:LUMCON:101:1,2019-11-01T17:00:00Z,29.2533,-90.6633,1.75,9.53,11111222 
LUMCON,ioos:station:LUMCON:101:1,2019-11-01T17:15:00Z,29.2533,-90.6633,1.742,9.63,11111222 
LUMCON,ioos:station:LUMCON:101:1,2019-11-01T17:30:00Z,29.2533,-90.6633,1.738,9.73,11111222 
LUMCON,ioos:station:LUMCON:101:1,2019-11-01T17:45:00Z,29.2533,-90.6633,1.728,9.81,11111222 
LUMCON,ioos:station:LUMCON:101:1,2019-11-01T18:00:00Z,29.2533,-90.6633,1.721,9.9,11111222 
LUMCON,ioos:station:LUMCON:101:1,2019-11-01T18:15:00Z,29.2533,-90.6633,1.715,9.98,11111222 
LUMCON,ioos:station:LUMCON:101:1,2019-11-01T18:30:00Z,29.2533,-90.6633,1.711,10.06,11133222 
LUMCON,ioos:station:LUMCON:101:1,2019-11-01T18:45:00Z,29.2533,-90.6633,1.703,10.11,11133222 
LUMCON,ioos:station:LUMCON:101:1,2019-11-01T19:00:00Z,29.2533,-90.6633,1.709,10.18,11133222 
LUMCON,ioos:station:LUMCON:101:1,2019-11-01T19:15:00Z,29.2533,-90.6633,1.714,10.21,11133222 
LUMCON,ioos:station:LUMCON:101:1,2019-11-01T19:30:00Z,29.2533,-90.6633,1.715,10.22,11133222 
LUMCON,ioos:station:LUMCON:101:1,2019-11-01T19:45:00Z,29.2533,-90.6633,1.721,10.2,11133222 
LUMCON,ioos:station:LUMCON:101:1,2019-11-01T20:00:00Z,29.2533,-90.6633,1.731,10.11,11133222 
LUMCON,ioos:station:LUMCON:101:1,2019-11-01T20:15:00Z,29.2533,-90.6633,1.727,10.22,11133222 
LUMCON,ioos:station:LUMCON:101:1,2019-11-01T20:30:00Z,29.2533,-90.6633,1.736,10.17,11133222 
LUMCON,ioos:station:LUMCON:101:1,2019-11-01T20:45:00Z,29.2533,-90.6633,1.758,9.97,11111222 
LUMCON,ioos:station:LUMCON:101:1,2019-11-01T21:00:00Z,29.2533,-90.6633,1.766,10.02,11133222 
LUMCON,ioos:station:LUMCON:101:1,2019-11-01T21:15:00Z,29.2533,-90.6633,1.785,10.08,11133222 
LUMCON,ioos:station:LUMCON:101:1,2019-11-01T21:30:00Z,29.2533,-90.6633,1.797,9.95,11111222 
LUMCON,ioos:station:LUMCON:101:1,2019-11-01T21:45:00Z,29.2533,-90.6633,1.804,9.86,11111222 
LUMCON,ioos:station:LUMCON:101:1,2019-11-01T22:00:00Z,29.2533,-90.6633,1.816,9.72,11111222 
LUMCON,ioos:station:LUMCON:101:1,2019-11-01T22:15:00Z,29.2533,-90.6633,1.826,9.6,11111222 
LUMCON,ioos:station:LUMCON:101:1,2019-11-01T22:30:00Z,29.2533,-90.6633,1.837,9.63,11111222 
LUMCON,ioos:station:LUMCON:101:1,2019-11-01T22:45:00Z,29.2533,-90.6633,1.848,9.74,11111222 
LUMCON,ioos:station:LUMCON:101:1,2019-11-01T23:00:00Z,29.2533,-90.6633,1.865,9.84,11111222 
LUMCON,ioos:station:LUMCON:101:1,2019-11-01T23:15:00Z,29.2533,-90.6633,1.879,9.77,11111222 
LUMCON,ioos:station:LUMCON:101:1,2019-11-01T23:30:00Z,29.2533,-90.6633,1.891,9.84,11111222 
LUMCON,ioos:station:LUMCON:101:1,2019-11-01T23:45:00Z,29.2533,-90.6633,1.91,9.92,11111222 
LUMCON,ioos:station:LUMCON:101:1,2019-11-02T00:00:00Z,29.2533,-90.6633,1.926,9.94,11111222 
LUMCON,ioos:station:LUMCON:101:1,2019-11-02T00:15:00Z,29.2533,-90.6633,1.936,10.01,11133222 
LUMCON,ioos:station:LUMCON:101:1,2019-11-02T00:30:00Z,29.2533,-90.6633,1.949,9.96,11111222 
LUMCON,ioos:station:LUMCON:101:1,2019-11-02T00:45:00Z,29.2533,-90.6633,1.959,9.99,11111222 
LUMCON,ioos:station:LUMCON:101:1,2019-11-02T01:00:00Z,29.2533,-90.6633,1.972,9.99,11111222 
LUMCON,ioos:station:LUMCON:101:1,2019-11-02T01:15:00Z,29.2533,-90.6633,1.982,10.05,11133222 
LUMCON,ioos:station:LUMCON:101:1,2019-11-02T01:30:00Z,29.2533,-90.6633,1.993,10.0,11111222 
LUMCON,ioos:station:LUMCON:101:1,2019-11-02T01:45:00Z,29.2533,-90.6633,2.0,9.99,11111222 
LUMCON,ioos:station:LUMCON:101:1,2019-11-02T02:00:00Z,29.2533,-90.6633,2.009,9.98,11111222 
LUMCON,ioos:station:LUMCON:101:1,2019-11-02T02:15:00Z,29.2533,-90.6633,2.023,10.02,11133222 
LUMCON,ioos:station:LUMCON:101:1,2019-11-02T02:30:00Z,29.2533,-90.6633,2.033,10.03,11133222 
LUMCON,ioos:station:LUMCON:101:1,2019-11-02T02:45:00Z,29.2533,-90.6633,2.044,10.05,11133222 
LUMCON,ioos:station:LUMCON:101:1,2019-11-02T03:00:00Z,29.2533,-90.6633,2.054,10.01,11133222 
LUMCON,ioos:station:LUMCON:101:1,2019-11-02T03:15:00Z,29.2533,-90.6633,2.063,10.06,11133222 
LUMCON,ioos:station:LUMCON:101:1,2019-11-02T03:30:00Z,29.2533,-90.6633,2.072,10.02,11133222 
LUMCON,ioos:station:LUMCON:101:1,2019-11-02T03:45:00Z,29.2533,-90.6633,2.079,9.97,11111222 
LUMCON,ioos:station:LUMCON:101:1,2019-11-02T04:00:00Z,29.2533,-90.6633,2.087,9.97,11111222 
LUMCON,ioos:station:LUMCON:101:1,2019-11-02T04:15:00Z,29.2533,-90.6633,2.094,9.97,11111222 
LUMCON,ioos:station:LUMCON:101:1,2019-11-02T04:30:00Z,29.2533,-90.6633,2.104,9.94,11111222 
LUMCON,ioos:station:LUMCON:101:1,2019-11-02T04:45:00Z,29.2533,-90.6633,2.114,9.94,11111222 
LUMCON,ioos:station:LUMCON:101:1,2019-11-02T05:00:00Z,29.2533,-90.6633,2.117,9.9,11111222 
LUMCON,ioos:station:LUMCON:101:1,2019-11-02T05:15:00Z,29.2533,-90.6633,2.124,9.9,11111222 
LUMCON,ioos:station:LUMCON:101:1,2019-11-02T05:30:00Z,29.2533,-90.6633,2.132,9.85,11111222 
LUMCON,ioos:station:LUMCON:101:1,2019-11-02T05:45:00Z,29.2533,-90.6633,2.139,9.89,11111222 
LUMCON,ioos:station:LUMCON:101:1,2019-11-02T06:00:00Z,29.2533,-90.6633,2.142,9.85,11111222 
LUMCON,ioos:station:LUMCON:101:1,2019-11-02T06:15:00Z,29.2533,-90.6633,2.143,9.92,11111222 
LUMCON,ioos:station:LUMCON:101:1,2019-11-02T06:30:00Z,29.2533,-90.6633,2.145,9.86,11111222 
LUMCON,ioos:station:LUMCON:101:1,2019-11-02T06:45:00Z,29.2533,-90.6633,2.143,9.93,11111222 
LUMCON,ioos:station:LUMCON:101:1,2019-11-02T07:00:00Z,29.2533,-90.6633,2.144,9.81,11111222 
LUMCON,ioos:station:LUMCON:101:1,2019-11-02T07:15:00Z,29.2533,-90.6633,2.142,9.77,11111222 
LUMCON,ioos:station:LUMCON:101:1,2019-11-02T07:30:00Z,29.2533,-90.6633,2.135,9.88,11111222 
LUMCON,ioos:station:LUMCON:101:1,2019-11-02T07:45:00Z,29.2533,-90.6633,2.133,9.94,11111222 
LUMCON,ioos:station:LUMCON:101:1,2019-11-02T08:00:00Z,29.2533,-90.6633,2.127,9.85,11111222 
LUMCON,ioos:station:LUMCON:101:1,2019-11-02T08:15:00Z,29.2533,-90.6633,2.124,9.86,11111222 
LUMCON,ioos:station:LUMCON:101:1,2019-11-02T08:30:00Z,29.2533,-90.6633,2.123,9.82,11111222 
LUMCON,ioos:station:LUMCON:101:1,2019-11-02T08:45:00Z,29.2533,-90.6633,2.124,9.79,11111222 
LUMCON,ioos:station:LUMCON:101:1,2019-11-02T09:00:00Z,29.2533,-90.6633,2.119,9.72,11111222 
LUMCON,ioos:station:LUMCON:101:1,2019-11-02T09:15:00Z,29.2533,-90.6633,2.113,9.7,11111222 
LUMCON,ioos:station:LUMCON:101:1,2019-11-02T09:30:00Z,29.2533,-90.6633,2.104,9.62,11111222 
LUMCON,ioos:station:LUMCON:101:1,2019-11-02T09:45:00Z,29.2533,-90.6633,2.094,9.57,11111222 
LUMCON,ioos:station:LUMCON:101:1,2019-11-02T10:00:00Z,29.2533,-90.6633,2.092,9.52,11111222 
LUMCON,ioos:station:LUMCON:101:1,2019-11-02T10:15:00Z,29.2533,-90.6633,2.081,9.42,11111222 
LUMCON,ioos:station:LUMCON:101:1,2019-11-02T10:30:00Z,29.2533,-90.6633,2.067,9.35,11111222 
LUMCON,ioos:station:LUMCON:101:1,2019-11-02T10:45:00Z,29.2533,-90.6633,2.052,9.27,11111222 
LUMCON,ioos:station:LUMCON:101:1,2019-11-02T11:00:00Z,29.2533,-90.6633,2.037,9.17,11111222 
LUMCON,ioos:station:LUMCON:101:1,2019-11-02T11:15:00Z,29.2533,-90.6633,2.023,9.08,11111222 
LUMCON,ioos:station:LUMCON:101:1,2019-11-02T11:30:00Z,29.2533,-90.6633,2.01,9.02,11111222 
LUMCON,ioos:station:LUMCON:101:1,2019-11-02T11:45:00Z,29.2533,-90.6633,1.995,8.89,11111222 
LUMCON,ioos:station:LUMCON:101:1,2019-11-02T12:00:00Z,29.2533,-90.6633,1.981,8.83,11111222 
LUMCON,ioos:station:LUMCON:101:1,2019-11-02T12:15:00Z,29.2533,-90.6633,1.966,8.78,11111222 
LUMCON,ioos:station:LUMCON:101:1,2019-11-02T12:30:00Z,29.2533,-90.6633,1.953,8.73,11111222 
LUMCON,ioos:station:LUMCON:101:1,2019-11-02T12:45:00Z,29.2533,-90.6633,1.94,8.61,11111222 
LUMCON,ioos:station:LUMCON:101:1,2019-11-02T13:00:00Z,29.2533,-90.6633,1.926,8.65,11111222 
LUMCON,ioos:station:LUMCON:101:1,2019-11-02T13:15:00Z,29.2533,-90.6633,1.913,8.54,11111222 
LUMCON,ioos:station:LUMCON:101:1,2019-11-02T13:30:00Z,29.2533,-90.6633,1.898,8.52,11111222 
LUMCON,ioos:station:LUMCON:101:1,2019-11-02T13:45:00Z,29.2533,-90.6633,1.883,8.47,11111222 
LUMCON,ioos:station:LUMCON:101:1,2019-11-02T14:00:00Z,29.2533,-90.6633,1.869,8.56,11111222 
LUMCON,ioos:station:LUMCON:101:1,2019-11-02T14:15:00Z,29.2533,-90.6633,1.856,8.63,11111222 
LUMCON,ioos:station:LUMCON:101:1,2019-11-02T14:30:00Z,29.2533,-90.6633,1.842,8.76,11111222 
LUMCON,ioos:station:LUMCON:101:1,2019-11-02T14:45:00Z,29.2533,-90.6633,1.831,8.71,11111222 
LUMCON,ioos:station:LUMCON:101:1,2019-11-02T15:00:00Z,29.2533,-90.6633,1.817,8.73,11111222 
LUMCON,ioos:station:LUMCON:101:1,2019-11-02T15:15:00Z,29.2533,-90.6633,1.806,8.91,11111222 
LUMCON,ioos:station:LUMCON:101:1,2019-11-02T15:30:00Z,29.2533,-90.6633,1.793,9.09,11111222 
LUMCON,ioos:station:LUMCON:101:1,2019-11-02T15:45:00Z,29.2533,-90.6633,1.78,9.12,11111222 
LUMCON,ioos:station:LUMCON:101:1,2019-11-02T16:00:00Z,29.2533,-90.6633,1.766,9.27,11111222 
LUMCON,ioos:station:LUMCON:101:1,2019-11-02T16:15:00Z,29.2533,-90.6633,1.754,9.47,11111222 
LUMCON,ioos:station:LUMCON:101:1,2019-11-02T16:30:00Z,29.2533,-90.6633,1.744,9.5,11111222 
LUMCON,ioos:station:LUMCON:101:1,2019-11-02T16:45:00Z,29.2533,-90.6633,1.736,9.65,11111222 
LUMCON,ioos:station:LUMCON:101:1,2019-11-02T17:00:00Z,29.2533,-90.6633,1.727,9.68,11111222 
LUMCON,ioos:station:LUMCON:101:1,2019-11-02T17:15:00Z,29.2533,-90.6633,1.716,9.8,11111222 
LUMCON,ioos:station:LUMCON:101:1,2019-11-02T17:30:00Z,29.2533,-90.6633,1.71,9.89,11111222 
LUMCON,ioos:station:LUMCON:101:1,2019-11-02T17:45:00Z,29.2533,-90.6633,1.702,10.01,11133222 
LUMCON,ioos:station:LUMCON:101:1,2019-11-02T18:00:00Z,29.2533,-90.6633,1.694,10.12,11133222 
LUMCON,ioos:station:LUMCON:101:1,2019-11-02T18:15:00Z,29.2533,-90.6633,1.684,10.17,11133222 
LUMCON,ioos:station:LUMCON:101:1,2019-11-02T18:30:00Z,29.2533,-90.6633,1.68,10.2,11133222 
LUMCON,ioos:station:LUMCON:101:1,2019-11-02T18:45:00Z,29.2533,-90.6633,1.671,10.3,11133222 
LUMCON,ioos:station:LUMCON:101:1,2019-11-02T19:00:00Z,29.2533,-90.6633,1.661,10.37,11133222 
LUMCON,ioos:station:LUMCON:101:1,2019-11-02T19:15:00Z,29.2533,-90.6633,1.654,10.44,11133222 
LUMCON,ioos:station:LUMCON:101:1,2019-11-02T19:30:00Z,29.2533,-90.6633,1.646,10.53,11133222 
LUMCON,ioos:station:LUMCON:101:1,2019-11-02T19:45:00Z,29.2533,-90.6633,1.64,10.6,11133222 
LUMCON,ioos:station:LUMCON:101:1,2019-11-02T20:00:00Z,29.2533,-90.6633,1.635,10.64,11133222 
LUMCON,ioos:station:LUMCON:101:1,2019-11-02T20:15:00Z,29.2533,-90.6633,1.63,10.68,11133222 
LUMCON,ioos:station:LUMCON:101:1,2019-11-02T20:30:00Z,29.2533,-90.6633,1.629,10.73,11133222 
LUMCON,ioos:station:LUMCON:101:1,2019-11-02T20:45:00Z,29.2533,-90.6633,1.626,10.74,11133222 
LUMCON,ioos:station:LUMCON:101:1,2019-11-02T21:00:00Z,29.2533,-90.6633,1.629,10.78,11133222 
LUMCON,ioos:station:LUMCON:101:1,2019-11-02T21:15:00Z,29.2533,-90.6633,1.635,10.77,11133222 
LUMCON,ioos:station:LUMCON:101:1,2019-11-02T21:30:00Z,29.2533,-90.6633,1.634,10.78,11133222 
LUMCON,ioos:station:LUMCON:101:1,2019-11-02T21:45:00Z,29.2533,-90.6633,1.641,10.78,11133222 
LUMCON,ioos:station:LUMCON:101:1,2019-11-02T22:00:00Z,29.2533,-90.6633,1.649,10.78,11133222 
LUMCON,ioos:station:LUMCON:101:1,2019-11-02T22:15:00Z,29.2533,-90.6633,1.664,10.71,11133222 
LUMCON,ioos:station:LUMCON:101:1,2019-11-02T22:30:00Z,29.2533,-90.6633,1.669,10.55,11133222 
LUMCON,ioos:station:LUMCON:101:1,2019-11-02T22:45:00Z,29.2533,-90.6633,1.672,10.49,11133222 
LUMCON,ioos:station:LUMCON:101:1,2019-11-02T23:00:00Z,29.2533,-90.6633,1.677,10.44,11133222 
LUMCON,ioos:station:LUMCON:101:1,2019-11-02T23:15:00Z,29.2533,-90.6633,1.684,10.47,11133222 
LUMCON,ioos:station:LUMCON:101:1,2019-11-02T23:30:00Z,29.2533,-90.6633,1.696,10.45,11133222 
LUMCON,ioos:station:LUMCON:101:1,2019-11-02T23:45:00Z,29.2533,-90.6633,1.712,10.36,11133222 
LUMCON,ioos:station:LUMCON:101:1,2019-11-03T00:00:00Z,29.2533,-90.6633,1.734,10.35,11133222 
LUMCON,ioos:station:LUMCON:101:1,2019-11-03T00:15:00Z,29.2533,-90.6633,1.748,10.1,11133222 
LUMCON,ioos:station:LUMCON:101:1,2019-11-03T00:30:00Z,29.2533,-90.6633,1.763,9.96,11111222 
LUMCON,ioos:station:LUMCON:101:1,2019-11-03T00:45:00Z,29.2533,-90.6633,1.769,9.93,11111222 
LUMCON,ioos:station:LUMCON:101:1,2019-11-03T01:00:00Z,29.2533,-90.6633,1.777,9.94,11111222 
LUMCON,ioos:station:LUMCON:101:1,2019-11-03T01:15:00Z,29.2533,-90.6633,1.79,9.81,11111222 
LUMCON,ioos:station:LUMCON:101:1,2019-11-03T01:30:00Z,29.2533,-90.6633,1.807,9.81,11111222 
LUMCON,ioos:station:LUMCON:101:1,2019-11-03T01:45:00Z,29.2533,-90.6633,1.824,9.85,11111222 
LUMCON,ioos:station:LUMCON:101:1,2019-11-03T02:00:00Z,29.2533,-90.6633,1.836,9.82,11111222 
LUMCON,ioos:station:LUMCON:101:1,2019-11-03T02:15:00Z,29.2533,-90.6633,1.848,9.7,11111222 
LUMCON,ioos:station:LUMCON:101:1,2019-11-03T02:30:00Z,29.2533,-90.6633,1.855,9.59,11111222 
LUMCON,ioos:station:LUMCON:101:1,2019-11-03T02:45:00Z,29.2533,-90.6633,1.863,9.59,11111222 
LUMCON,ioos:station:LUMCON:101:1,2019-11-03T03:00:00Z,29.2533,-90.6633,1.874,9.61,11111222 
LUMCON,ioos:station:LUMCON:101:1,2019-11-03T03:15:00Z,29.2533,-90.6633,1.886,9.41,11111222 
LUMCON,ioos:station:LUMCON:101:1,2019-11-03T03:30:00Z,29.2533,-90.6633,1.9,9.38,11111222 
LUMCON,ioos:station:LUMCON:101:1,2019-11-03T03:45:00Z,29.2533,-90.6633,1.907,9.34,11111222 
LUMCON,ioos:station:LUMCON:101:1,2019-11-03T04:00:00Z,29.2533,-90.6633,1.915,9.56,11111222 
LUMCON,ioos:station:LUMCON:101:1,2019-11-03T04:15:00Z,29.2533,-90.6633,1.924,9.53,11111222 
LUMCON,ioos:station:LUMCON:101:1,2019-11-03T04:30:00Z,29.2533,-90.6633,1.933,9.44,11111222 
LUMCON,ioos:station:LUMCON:101:1,2019-11-03T04:45:00Z,29.2533,-90.6633,1.94,9.52,11111222 
LUMCON,ioos:station:LUMCON:101:1,2019-11-03T05:00:00Z,29.2533,-90.6633,1.945,9.54,11111222 
LUMCON,ioos:station:LUMCON:101:1,2019-11-03T05:15:00Z,29.2533,-90.6633,1.951,9.57,11111222 
LUMCON,ioos:station:LUMCON:101:1,2019-11-03T05:30:00Z,29.2533,-90.6633,1.955,9.53,11111222 
LUMCON,ioos:station:LUMCON:101:1,2019-11-03T05:45:00Z,29.2533,-90.6633,1.961,9.59,11111222 
LUMCON,ioos:station:LUMCON:101:1,2019-11-03T06:00:00Z,29.2533,-90.6633,1.972,9.51,11111222 
LUMCON,ioos:station:LUMCON:101:1,2019-11-03T06:15:00Z,29.2533,-90.6633,1.979,9.58,11111222 
LUMCON,ioos:station:LUMCON:101:1,2019-11-03T06:30:00Z,29.2533,-90.6633,1.987,9.58,11111222 
LUMCON,ioos:station:LUMCON:101:1,2019-11-03T06:45:00Z,29.2533,-90.6633,1.998,9.41,11111222 
LUMCON,ioos:station:LUMCON:101:1,2019-11-03T07:00:00Z,29.2533,-90.6633,2.003,9.53,11111222 
LUMCON,ioos:station:LUMCON:101:1,2019-11-03T07:15:00Z,29.2533,-90.6633,2.008,9.53,11111222 
LUMCON,ioos:station:LUMCON:101:1,2019-11-03T07:30:00Z,29.2533,-90.6633,2.011,9.54,11111222 
LUMCON,ioos:station:LUMCON:101:1,2019-11-03T07:45:00Z,29.2533,-90.6633,2.008,9.58,11111222 
LUMCON,ioos:station:LUMCON:101:1,2019-11-03T08:00:00Z,29.2533,-90.6633,2.006,9.56,11111222 
LUMCON,ioos:station:LUMCON:101:1,2019-11-03T08:15:00Z,29.2533,-90.6633,2.004,9.58,11111222 
LUMCON,ioos:station:LUMCON:101:1,2019-11-03T08:30:00Z,29.2533,-90.6633,2.003,9.55,11111222 
LUMCON,ioos:station:LUMCON:101:1,2019-11-03T08:45:00Z,29.2533,-90.6633,1.996,9.46,11111222 
LUMCON,ioos:station:LUMCON:101:1,2019-11-03T09:00:00Z,29.2533,-90.6633,1.988,9.34,11111222 
LUMCON,ioos:station:LUMCON:101:1,2019-11-03T09:15:00Z,29.2533,-90.6633,1.979,9.31,11111222 
LUMCON,ioos:station:LUMCON:101:1,2019-11-03T09:30:00Z,29.2533,-90.6633,1.971,9.36,11111222 
LUMCON,ioos:station:LUMCON:101:1,2019-11-03T09:45:00Z,29.2533,-90.6633,1.969,9.33,11111222 
LUMCON,ioos:station:LUMCON:101:1,2019-11-03T10:00:00Z,29.2533,-90.6633,1.966,9.26,11111222 
LUMCON,ioos:station:LUMCON:101:1,2019-11-03T10:15:00Z,29.2533,-90.6633,1.964,9.24,11111222 
LUMCON,ioos:station:LUMCON:101:1,2019-11-03T10:30:00Z,29.2533,-90.6633,1.963,9.24,11111222 
LUMCON,ioos:station:LUMCON:101:1,2019-11-03T10:45:00Z,29.2533,-90.6633,1.962,9.22,11111222 
LUMCON,ioos:station:LUMCON:101:1,2019-11-03T11:00:00Z,29.2533,-90.6633,1.952,9.2,11111222 
LUMCON,ioos:station:LUMCON:101:1,2019-11-03T11:15:00Z,29.2533,-90.6633,1.943,9.17,11111222 
LUMCON,ioos:station:LUMCON:101:1,2019-11-03T11:30:00Z,29.2533,-90.6633,1.939,9.11,11111222 
LUMCON,ioos:station:LUMCON:101:1,2019-11-03T11:45:00Z,29.2533,-90.6633,1.939,9.08,11111222 
LUMCON,ioos:station:LUMCON:101:1,2019-11-03T12:00:00Z,29.2533,-90.6633,1.939,9.04,11111222 
LUMCON,ioos:station:LUMCON:101:1,2019-11-03T12:15:00Z,29.2533,-90.6633,1.939,9.02,11111222 
LUMCON,ioos:station:LUMCON:101:1,2019-11-03T12:30:00Z,29.2533,-90.6633,1.934,8.99,11111222 
LUMCON,ioos:station:LUMCON:101:1,2019-11-03T12:45:00Z,29.2533,-90.6633,1.929,8.97,11111222 
LUMCON,ioos:station:LUMCON:101:1,2019-11-03T13:00:00Z,29.2533,-90.6633,1.922,8.97,11111222 
LUMCON,ioos:station:LUMCON:101:1,2019-11-03T13:15:00Z,29.2533,-90.6633,1.911,9.02,11111222 
LUMCON,ioos:station:LUMCON:101:1,2019-11-03T13:30:00Z,29.2533,-90.6633,1.905,9.09,11111222 
LUMCON,ioos:station:LUMCON:101:1,2019-11-03T13:45:00Z,29.2533,-90.6633,1.895,9.06,11111222 
LUMCON,ioos:station:LUMCON:101:1,2019-11-03T14:00:00Z,29.2533,-90.6633,1.891,8.99,11111222 
LUMCON,ioos:station:LUMCON:101:1,2019-11-03T14:15:00Z,29.2533,-90.6633,1.879,9.09,11111222 
LUMCON,ioos:station:LUMCON:101:1,2019-11-03T14:30:00Z,29.2533,-90.6633,1.874,9.19,11111222 
LUMCON,ioos:station:LUMCON:101:1,2019-11-03T14:45:00Z,29.2533,-90.6633,1.868,9.2,11111222 
LUMCON,ioos:station:LUMCON:101:1,2019-11-03T15:00:00Z,29.2533,-90.6633,1.864,9.27,11111222 
LUMCON,ioos:station:LUMCON:101:1,2019-11-03T15:15:00Z,29.2533,-90.6633,1.86,9.34,11111222 
LUMCON,ioos:station:LUMCON:101:1,2019-11-03T15:30:00Z,29.2533,-90.6633,1.859,9.38,11111222 
LUMCON,ioos:station:LUMCON:101:1,2019-11-03T15:45:00Z,29.2533,-90.6633,1.857,9.43,11111222 
LUMCON,ioos:station:LUMCON:101:1,2019-11-03T16:00:00Z,29.2533,-90.6633,1.847,9.48,11111222 
LUMCON,ioos:station:LUMCON:101:1,2019-11-03T16:15:00Z,29.2533,-90.6633,1.842,9.61,11111222 
LUMCON,ioos:station:LUMCON:101:1,2019-11-03T16:30:00Z,29.2533,-90.6633,1.835,9.67,11111222 